Location: Newark
(40.9833°N, 0.0333°W)
Time: 20:48:46
(UTC+00:00)

Vanguard 2 Rocket - Pass Details

Date: 03 November 2020
Orbit: 553 x 3326 km, 32.9° (Epoch: 29 November)

Event Time Altitude Azimuth Distance (km) Brightness Sun altitude
Rises 21:21:45 0° 254° (WSW) 2,879 - -50.1°
Reaches altitude 10° 21:25:07 10° 224° (SW) 2,212 - -50.6°
Maximum altitude 21:27:18 13° 197° (SSW) 2,222 - -51.0°
Drops below altitude 10° 21:29:50 10° 172° (S) 2,667 - -51.4°
Sets 21:34:56 0° 147° (SSE) 4,206 - -52.2°
